map of AZI home
AZI - Airport
Location
City:  Abu Dhabi, Abu Dhabi, United Arab Emirates
Name:Al Bateen Executive Airport
ICAO:OMAD
IATA:AZI

Details
Type:Airport (Aerodrome, Airfield)
Use:Public/Civil, Military
Latitude:2425'42"N (24.428333)
Longitude:5427'29"E (54.458084)
Datum:WGS 1984
Elevation:16 ft (5 m)
Variation:2.06E (WMM2015v2 magnetic declination)
0.05 annual change
Runways:1
Longest:10499 × 150 ft (3200 × 45.5 m), paved

Time
Time Zone:UTC+4
Local Time:

Weather
METAR:OMAD 041400Z 31012KT CAVOK 21/12 Q1019 NOSIG
TAF:OMAD 041100Z 0412/0518 31012KT 8000 FEW035
BECMG 0422/0500 19004KT
BECMG 0504/0506 30012KT

Related Locations
Nearby:
Farthest:GMR: 11848 mi / 19068 km
Mangareva [Totegegie], Gambier Islands, PF

Find:

   beyond  
but within

Other Information
Maps:
NOTAMs:
Links:
Sources:

  
  • flag of United Arab Emirates
  • flag of Abu Dhabi
  

Sectional Chart

Flight Planning
at skyvector.com

Satellite Image

Google Maps Satellite view

 

Copyright © 2004-2019 Karl L. Swartz. All rights reserved.
The Great Circle Mapper name and logo are trademarks of the Great Circle Mapper.
All other trademarks mentioned herein belong to their respective owners.
Please see credits for attibutions and further copyright information.

  Follow gcmap on Facebook Follow gcmap on Twitter GCmap on LinkedIn

hCard Microformat

Geo Microformat